Bega Observation History
Time Wind Speed Temp Pressure Rel. Hum Rain
14/10:30am SW 11-19 kts 15.3°c 1011.0 hPa 49% 0.0mm
14/10:00am WSW 8-16 kts 14.7°c 1010.7 hPa 53% 0.0mm
14/09:30am E 3-4 kts 12.9°c 1010.8 hPa 76% 0.0mm
14/09:00am E 2-4 kts 12.6°c 1010.7 hPa 77% 0.0mm
14/08:30am NE 1-3 kts 11.3°c 1010.6 hPa 77% 0.0mm
14/08:00am NE 3-5 kts 9.5°c 1010.3 hPa 87% 0.0mm
14/07:30am W 1-5 kts 8.1°c 1010.4 hPa 84% 0.0mm
14/07:00am SW 3-4 kts 7.8°c 1010.0 hPa 87% 0.0mm
14/06:30am S 4-5 kts 7.9°c 1009.7 hPa 86% 0.0mm
14/06:00am W 4-6 kts 9.5°c 1009.2 hPa 75% 0.0mm
14/05:30am WSW 7-10 kts 10.8°c 1009.2 hPa 70% 0.0mm
14/05:00am WSW 9-13 kts 11.5°c 1009.1 hPa 67% 0.0mm
14/04:30am SW 3-6 kts 11.5°c 1009.0 hPa 67% 0.0mm
14/04:00am W 6-9 kts 11.8°c 1009.0 hPa 67% 0.0mm
14/03:30am SW 6-9 kts 11.7°c 1008.8 hPa 74% 0.0mm
14/03:00am SW 6-7 kts 11.1°c 1009.0 hPa 81% 0.0mm
14/02:30am SW 8-11 kts 11.4°c 1009.1 hPa 80% 0.0mm
14/02:00am SSW 1-4 kts 9.1°c 1008.8 hPa 96% 0.0mm
14/01:30am E 1-4 kts 9.1°c 1008.7 hPa 95% 0.0mm
14/01:00am NNW 3-5 kts 9.0°c 1008.5 hPa 93% 0.0mm
14/12:30am E 3-5 kts 9.5°c 1008.4 hPa 93% 0.0mm
14/12:00am WSW 6-7 kts 11.2°c 1008.4 hPa 75% 0.0mm
Time Wind Speed Temp Pressure Rel. Hum Rain
13/11:30pm SSW 5-7 kts 9.8°c 1008.3 hPa 88% 0.0mm
13/11:00pm WSW 5-6 kts 11.5°c 1008.4 hPa 78% 0.0mm
13/10:30pm WSW 1-6 kts 11.0°c 1008.6 hPa 84% 0.0mm
13/10:00pm SE 3-5 kts 9.8°c 1008.7 hPa 93% 0.0mm
13/09:30pm WSW 2-5 kts 10.7°c 1008.7 hPa 96% 0.0mm
13/09:00pm CALM 0 kts 11.2°c 1008.6 hPa 91% 0.0mm
13/08:30pm SW 3-5 kts 11.6°c 1008.6 hPa 90% 0.0mm
13/08:00pm S 4 kts 11.7°c 1008.5 hPa 93% 0.0mm
13/07:30pm WNW 2-4 kts 13.1°c 1008.4 hPa 88% 0.0mm
13/07:00pm CALM 0 kts 13.5°c 1008.4 hPa 92% 0.0mm
13/06:30pm CALM 0 kts 14.4°c 1008.2 hPa 88% 0.0mm
13/06:00pm SSE 1-4 kts 14.5°c 1008.2 hPa 84% 0.0mm
13/05:30pm N 4-5 kts 15.8°c 1007.7 hPa 78% 0.0mm
13/05:00pm WNW 2-4 kts 16.5°c 1007.7 hPa 75% 0.0mm
13/04:30pm SW 3-5 kts 17.9°c 1008.2 hPa 69% 0.0mm
13/04:00pm WNW 2-3 kts 18.7°c 1008.1 hPa 66% 0.0mm
13/03:30pm NNE 4-5 kts 19.7°c 1008.0 hPa 64% 0.0mm
13/03:00pm NNE 3-5 kts 19.6°c 1008.4 hPa 62% 0.0mm
13/02:30pm NE 3-5 kts 20.9°c 1008.4 hPa 58% 0.0mm
13/02:00pm NNE 1-5 kts 21.0°c 1008.8 hPa 54% 0.0mm
13/01:30pm ENE 3-4 kts 21.3°c 1008.8 hPa 56% 0.0mm
13/01:00pm ENE 4-6 kts 20.9°c 1009.3 hPa 62% 0.0mm
13/12:30pm ENE 4-6 kts 20.7°c 1009.7 hPa 71% 0.0mm
13/12:00pm NE 5-6 kts 19.3°c 1010.7 hPa 75% 0.0mm
13/11:30am NNE 3-5 kts 18.5°c 1011.4 hPa 79% 0.0mm
13/11:00am NE 2-5 kts 16.5°c 1012.2 hPa 85% 0.0mm
13/10:30am SSE 1-4 kts 15.2°c 1012.8 hPa 98% 0.0mm
13/10:00am CALM 0-3 kts 12.4°c 1013.2 hPa 99% 0.0mm
13/09:30am CALM 0 kts 11.6°c 1013.3 hPa 99% 0.0mm
13/09:00am S 2-4 kts 9.6°c 1013.9 hPa 99% 0.4mm
13/08:30am CALM 0 kts 8.7°c 1014.3 hPa 99% 0.4mm
13/08:00am CALM 0 kts 8.3°c 1014.6 hPa 99% 0.4mm
13/07:30am CALM 0-3 kts 8.0°c 1014.7 hPa 99% 0.4mm
13/07:00am CALM 0 kts 8.0°c 1014.8 hPa 99% 0.4mm
13/06:30am W 1-3 kts 7.9°c 1015.1 hPa 99% 0.2mm
13/06:00am WSW 3-4 kts 8.3°c 1014.8 hPa 99% 0.2mm
13/05:30am CALM 0 kts 8.6°c 1014.9 hPa 99% 0.2mm
13/05:00am SSW 4-5 kts 9.2°c 1015.0 hPa 99% 0.2mm
13/04:30am CALM 0 kts 9.8°c 1015.2 hPa 99% 0.2mm
13/04:00am CALM 0 kts 9.8°c 1015.5 hPa 99% 0.2mm
13/03:30am NNE 3-4 kts 10.4°c 1015.6 hPa 99% 0.2mm
13/03:00am CALM 0 kts 10.8°c 1015.7 hPa 99% 0.2mm
13/02:30am CALM 0 kts 10.7°c 1016.3 hPa 99% 0.2mm
13/02:00am S 1-3 kts 10.9°c 1016.4 hPa 99% 0.2mm
13/01:30am WSW 2-4 kts 11.4°c 1016.7 hPa 99% 0.2mm
13/01:00am CALM 0 kts 10.9°c 1017.3 hPa 99% 0.2mm
13/12:30am WNW 3-5 kts 10.8°c 1017.7 hPa 99% 0.2mm
13/12:00am CALM 0 kts 10.9°c 1018.4 hPa 99% 0.2mm
Time Wind Speed Temp Pressure Rel. Hum Rain
12/11:30pm CALM 0 kts 11.0°c 1018.6 hPa 99% 0.2mm
12/11:00pm SW 1-4 kts 10.9°c 1018.7 hPa 99% 0.2mm
12/10:30pm SE 1-4 kts 11.6°c 1019.3 hPa 99% 0.2mm
12/10:00pm CALM 0 kts 12.2°c 1019.5 hPa 99% 0.2mm
12/09:30pm CALM 0 kts 12.2°c 1019.7 hPa 99% 0.2mm
12/09:00pm CALM 0 kts 12.6°c 1019.8 hPa 99% 0.2mm
12/08:30pm CALM 0 kts 13.0°c 1019.7 hPa 99% 0.2mm
12/08:00pm CALM 0 kts 13.4°c 1019.6 hPa 99% 0.2mm
12/07:30pm CALM 0-3 kts 13.4°c 1019.5 hPa 98% 0.2mm
12/07:00pm WSW 2-4 kts 14.3°c 1019.5 hPa 97% 0.2mm
12/06:30pm SSE 2-4 kts 14.4°c 1019.5 hPa 97% 0.2mm
12/06:00pm W 2-4 kts 15.4°c 1019.2 hPa 95% 0.2mm
12/05:30pm WSW 3-5 kts 15.7°c 1019.3 hPa 92% 0.2mm
12/05:00pm E 5-8 kts 16.4°c 1019.3 hPa 90% 0.2mm
12/04:30pm ESE 7-10 kts 16.9°c 1019.0 hPa 87% 0.2mm
12/04:00pm SE 4-6 kts 17.7°c 1019.1 hPa 85% 0.2mm
12/03:30pm SSE 5-6 kts 18.7°c 1019.1 hPa 75% 0.2mm
12/03:00pm S 6-8 kts 18.5°c 1019.0 hPa 79% 0.2mm
12/02:30pm SW 4-5 kts 19.3°c 1018.9 hPa 72% 0.2mm
12/02:00pm W 1-3 kts 20.9°c 1019.3 hPa 68% 0.2mm
12/01:30pm E 2-4 kts 20.9°c 1019.7 hPa 73% 0.2mm
12/01:00pm SSW 4-6 kts 19.0°c 1020.2 hPa 76% 0.2mm
12/12:30pm SSW 5-7 kts 18.1°c 1020.5 hPa 79% 0.2mm
12/12:00pm S 7-9 kts 18.3°c 1020.8 hPa 80% 0.0mm
12/11:30am SSW 8-10 kts 17.7°c 1021.1 hPa 82% 0.0mm
12/11:00am S 3-6 kts 17.9°c 1021.5 hPa 84% 0.0mm
12/10:30am SW 5-9 kts 17.5°c 1021.7 hPa 84% 0.0mm
12/10:00am WSW 5-7 kts 16.1°c 1021.8 hPa 91% 0.0mm
12/09:30am SW 5-6 kts 15.6°c 1021.8 hPa 94% 0.0mm
12/09:00am SSW 5-8 kts 15.6°c 1021.8 hPa 96% 139.8mm
12/08:30am SW 7-9 kts 14.6°c 1021.8 hPa 98% 139.8mm
12/08:00am WSW 12-15 kts 14.2°c 1021.4 hPa 99% 139.8mm
12/07:30am WNW 10-15 kts 13.7°c 1021.3 hPa 99% 139.8mm
12/07:00am W 7-12 kts 13.8°c 1021.2 hPa 99% 135.4mm
12/06:30am W 8-11 kts 14.1°c 1020.7 hPa 99% 133.8mm
12/06:00am W 5-9 kts 14.1°c 1020.6 hPa 99% 133.8mm
12/05:30am WSW 9-14 kts 13.9°c 1020.0 hPa 99% 133.8mm
12/05:04am NNW 11-27 kts 14.3°c 1019.9 hPa 99% 114.2mm
12/05:02am NNW 8-23 kts 13.9°c 1019.9 hPa 99% 109.4mm
12/05:00am W 6-11 kts 14.1°c 1020.4 hPa 99% 105.8mm
12/04:51am WSW 18-28 kts 14.1°c 1019.9 hPa 99% 101.2mm
12/04:30am WSW 16-22 kts 14.0°c 1019.3 hPa 99% 98.2mm
12/04:00am SW 14-19 kts 14.2°c 1019.8 hPa 95% 91.0mm
12/03:30am SW 12-17 kts 14.2°c 1020.0 hPa 96% 91.0mm
12/03:00am SSW 12-19 kts 14.1°c 1019.8 hPa 98% 91.0mm
12/02:30am SSW 14-18 kts 14.2°c 1019.9 hPa 98% 91.0mm
12/02:00am S 12-18 kts 14.6°c 1020.1 hPa 97% 90.6mm
12/01:30am S 13-19 kts 14.8°c 1019.9 hPa 98% 90.6mm
12/01:00am S 13-19 kts 14.8°c 1019.9 hPa 97% 89.8mm
12/12:30am SSE 14-23 kts 15.1°c 1020.3 hPa 96% 89.2mm
12/12:00am SSE 13-19 kts 15.2°c 1020.3 hPa 97% 89.0mm